Location: ??
(34.7252°N, 135.5457°E)
Time: 17:27:12
(UTC+00:00)

Cosmos 2173 Rocket - Pass Details

Date: 24 September 2020
Orbit: 946 x 999 km, 83.0° (Epoch: 27 October)

Event Time Altitude Azimuth Distance (km) Brightness Sun altitude
Rises 19:07:34 0° 354° (N) 3,713 7.1 -21.3°
Reaches altitude 10° 19:10:05 10° 355° (N) 2,765 6.5 -20.8°
Maximum altitude 19:16:28 87° 83° (E) 1,005 4.0 -19.5°
Drops below altitude 10° 19:22:50 10° 174° (S) 2,758 6.3 -18.2°
Sets 19:25:21 0° 175° (S) 3,702 7.0 -17.7°
